When you browse on this site, cookies collect data to enhance your experience and personalize the content and advertising you see.
Visit our Privacy Policy to learn more. By continuing to use the site, you agree to this use of cookies and data.
  • In Portugal
  • List of Countries
  • For 7 days
  • Water Temperature
  • Weather Map
  • Weather Widgets
  • user-avatar
    Login

    Hourly Weather Ordino

    Today, 1 June, Monday

    Time Temperature Precipitation Wind Pressure Humidity
    00:00 +12°C° 0.2 mm 1 mps 632 mmHg 94%
    01:00 +11°C° 0.1 mm 1 mps 632 mmHg 94%
    02:00 +11°C° 0.1 mm 1 mps 631 mmHg 94%
    03:00 +11°C° 0.1 mm 1 mps 631 mmHg 93%
    04:00 +11°C° 0 mm 1 mps 632 mmHg 91%
    05:00 +12°C° 0 mm 1 mps 632 mmHg 89%
    06:00 +12°C° 0 mm 0 mps 632 mmHg 87%
    07:00 +14°C° 0.3 mm 1 mps 633 mmHg 84%
    08:00 +14°C° 0.3 mm 1 mps 634 mmHg 81%
    09:00 +15°C° 0.3 mm 2 mps 634 mmHg 78%
    10:00 +15°C° 1 mm 1 mps 634 mmHg 82%
    11:00 +14°C° 1 mm 1 mps 634 mmHg 85%
    12:00 +14°C° 1 mm 1 mps 633 mmHg 88%
    13:00 +14°C° 1.5 mm 1 mps 633 mmHg 88%
    14:00 +14°C° 1.5 mm 1 mps 633 mmHg 88%
    15:00 +14°C° 1.5 mm 1 mps 633 mmHg 88%
    16:00 +14°C° 1.3 mm 1 mps 633 mmHg 90%
    17:00 +14°C° 1.3 mm 1 mps 633 mmHg 92%
    18:00 +12°C° 1.3 mm 0 mps 633 mmHg 94%
    19:00 +12°C° 0.8 mm 0 mps 633 mmHg 94%
    20:00 +11°C° 0.8 mm 0 mps 633 mmHg 93%
    21:00 +11°C° 0.8 mm 1 mps 634 mmHg 93%
    22:00 +11°C° 0 mm 1 mps 633 mmHg 93%
    23:00 +10°C° 0 mm 1 mps 633 mmHg 92%

    Tomorrow, 2 June, Tuesday

    Time Temperature Precipitation Wind Pressure Humidity
    00:00 +10°C° 0 mm 1 mps 633 mmHg 92%
    01:00 +10°C° 0 mm 1 mps 632 mmHg 91%
    02:00 +10°C° 0 mm 1 mps 632 mmHg 91%
    03:00 +9°C° 0 mm 1 mps 632 mmHg 90%
    04:00 +10°C° 0 mm 1 mps 633 mmHg 88%
    05:00 +11°C° 0 mm 1 mps 633 mmHg 87%
    06:00 +12°C° 0 mm 1 mps 633 mmHg 86%
    07:00 +14°C° 0 mm 1 mps 634 mmHg 77%
    08:00 +16°C° 0 mm 1 mps 635 mmHg 69%
    09:00 +19°C° 0 mm 1 mps 636 mmHg 60%
    10:00 +19°C° 0.1 mm 1 mps 635 mmHg 59%
    11:00 +19°C° 0.1 mm 2 mps 635 mmHg 58%
    12:00 +19°C° 0.1 mm 2 mps 635 mmHg 57%
    13:00 +18°C° 0.7 mm 2 mps 635 mmHg 63%
    14:00 +19°C° 0.7 mm 1 mps 634 mmHg 70%
    15:00 +18°C° 0.7 mm 1 mps 634 mmHg 77%
    16:00 +16°C° 0.7 mm 1 mps 633 mmHg 80%
    17:00 +16°C° 0.7 mm 1 mps 633 mmHg 84%
    18:00 +14°C° 0.7 mm 0 mps 632 mmHg 88%
    19:00 +13°C° 0.1 mm 0 mps 632 mmHg 90%
    20:00 +12°C° 0.1 mm 0 mps 632 mmHg 91%
    21:00 +11°C° 0.1 mm 0 mps 631 mmHg 93%
    22:00 +11°C° 0.4 mm 0 mps 631 mmHg 93%
    23:00 +11°C° 0.4 mm 0 mps 631 mmHg 93%

    Day after tomorrow, 3 June, Wednesday

    Time Temperature Precipitation Wind Pressure Humidity
    00:00 +11°C° 0.4 mm 0 mps 630 mmHg 92%
    01:00 +11°C° 0.3 mm 1 mps 630 mmHg 92%
    02:00 +11°C° 0.3 mm 1 mps 630 mmHg 91%
    03:00 +11°C° 0.3 mm 1 mps 629 mmHg 91%
    04:00 +12°C° 0 mm 1 mps 629 mmHg 89%
    05:00 +12°C° 0 mm 1 mps 629 mmHg 87%
    06:00 +13°C° 0 mm 1 mps 630 mmHg 85%
    07:00 +14°C° 0.4 mm 1 mps 630 mmHg 82%
    08:00 +16°C° 0.4 mm 1 mps 630 mmHg 79%
    09:00 +18°C° 0.4 mm 1 mps 631 mmHg 75%
    10:00 +18°C° 1.3 mm 1 mps 630 mmHg 76%
    11:00 +17°C° 1.3 mm 2 mps 630 mmHg 76%
    12:00 +17°C° 1.3 mm 2 mps 630 mmHg 77%
    13:00 +17°C° 1.3 mm 2 mps 629 mmHg 79%
    14:00 +17°C° 1.3 mm 2 mps 629 mmHg 80%
    15:00 +16°C° 1.3 mm 2 mps 628 mmHg 82%
    16:00 +16°C° 0.7 mm 1 mps 628 mmHg 84%
    17:00 +15°C° 0.7 mm 1 mps 628 mmHg 87%
    18:00 +15°C° 0.7 mm 1 mps 627 mmHg 89%
    19:00 +14°C° 0.7 mm 1 mps 627 mmHg 91%
    20:00 +13°C° 0.7 mm 1 mps 627 mmHg 92%
    21:00 +12°C° 0.7 mm 1 mps 627 mmHg 94%
    22:00 +11°C° 0.4 mm 1 mps 627 mmHg 94%
    23:00 +11°C° 0.4 mm 1 mps 626 mmHg 94%

    4 June, Thursday

    Time Temperature Precipitation Wind Pressure Humidity
    00:00 +11°C° 0.4 mm 1 mps 626 mmHg 95%
    01:00 +11°C° 0.2 mm 1 mps 626 mmHg 95%
    02:00 +11°C° 0.2 mm 1 mps 626 mmHg 95%
    03:00 +10°C° 0.2 mm 0 mps 625 mmHg 95%
    04:00 +10°C° 0.1 mm 0 mps 626 mmHg 95%
    05:00 +12°C° 0.1 mm 1 mps 626 mmHg 94%
    06:00 +12°C° 0.1 mm 1 mps 626 mmHg 94%
    07:00 +13°C° 0.2 mm 1 mps 627 mmHg 90%
    08:00 +14°C° 0.2 mm 1 mps 627 mmHg 86%
    09:00 +15°C° 0.2 mm 2 mps 628 mmHg 82%
    10:00 +15°C° 0.4 mm 2 mps 628 mmHg 82%
    11:00 +15°C° 0.4 mm 2 mps 628 mmHg 82%
    12:00 +15°C° 0.4 mm 2 mps 628 mmHg 82%
    13:00 +15°C° 0.7 mm 2 mps 627 mmHg 83%
    14:00 +15°C° 0.7 mm 2 mps 627 mmHg 84%
    15:00 +15°C° 0.7 mm 2 mps 627 mmHg 84%
    16:00 +14°C° 0.5 mm 2 mps 627 mmHg 86%
    17:00 +14°C° 0.5 mm 1 mps 627 mmHg 88%
    18:00 +14°C° 0.5 mm 1 mps 627 mmHg 89%
    19:00 +13°C° 0.2 mm 1 mps 627 mmHg 91%
    20:00 +12°C° 0.2 mm 1 mps 627 mmHg 93%
    21:00 +11°C° 0.2 mm 1 mps 627 mmHg 94%
    22:00 +10°C° 0.1 mm 1 mps 627 mmHg 94%
    23:00 +10°C° 0.1 mm 1 mps 627 mmHg 94%

    5 June, Friday

    Time Temperature Precipitation Wind Pressure Humidity
    00:00 +10°C° 0.1 mm 1 mps 627 mmHg 94%
    01:00 +10°C° 0 mm 1 mps 627 mmHg 94%
    02:00 +10°C° 0 mm 1 mps 626 mmHg 94%
    03:00 +9°C° 0 mm 1 mps 626 mmHg 93%
    04:00 +10°C° 0 mm 1 mps 627 mmHg 92%
    05:00 +11°C° 0 mm 1 mps 627 mmHg 92%
    06:00 +11°C° 0 mm 1 mps 627 mmHg 91%
    07:00 +13°C° 0.1 mm 1 mps 628 mmHg 83%
    08:00 +14°C° 0.1 mm 1 mps 628 mmHg 76%
    09:00 +15°C° 0.1 mm 2 mps 629 mmHg 68%
    10:00 +16°C° 0.5 mm 2 mps 629 mmHg 67%
    11:00 +16°C° 0.5 mm 2 mps 629 mmHg 66%
    12:00 +16°C° 0.5 mm 2 mps 629 mmHg 65%
    13:00 +16°C° 0.6 mm 2 mps 628 mmHg 65%
    14:00 +16°C° 0.6 mm 2 mps 628 mmHg 64%
    15:00 +16°C° 0.6 mm 2 mps 628 mmHg 64%
    16:00 +14°C° 1.3 mm 2 mps 627 mmHg 74%
    17:00 +13°C° 1.3 mm 2 mps 627 mmHg 84%
    18:00 +10°C° 1.3 mm 2 mps 626 mmHg 94%
    19:00 +9°C° 2 mm 2 mps 627 mmHg 94%
    20:00 +9°C° 2 mm 2 mps 627 mmHg 95%
    21:00 +8°C° 2 mm 2 mps 627 mmHg 96%
    22:00 +9°C° 0.5 mm 1 mps 627 mmHg 95%
    23:00 +9°C° 0.5 mm 1 mps 627 mmHg 95%

    6 June, Saturday

    Time Temperature Precipitation Wind Pressure Humidity
    00:00 +9°C° 0.5 mm 1 mps 628 mmHg 95%
    01:00 +7°C° 0.4 mm 2 mps 628 mmHg 95%
    02:00 +7°C° 0.4 mm 2 mps 628 mmHg 95%
    03:00 +7°C° 0.4 mm 2 mps 628 mmHg 95%
    04:00 +7°C° 0 mm 2 mps 628 mmHg 94%
    05:00 +7°C° 0 mm 2 mps 629 mmHg 93%
    06:00 +7°C° 0 mm 2 mps 629 mmHg 92%
    07:00 +10°C° 0 mm 1 mps 630 mmHg 83%
    08:00 +12°C° 0 mm 1 mps 631 mmHg 73%
    09:00 +14°C° 0 mm 1 mps 632 mmHg 64%
    10:00 +15°C° 0 mm 1 mps 633 mmHg 60%
    11:00 +16°C° 0 mm 2 mps 633 mmHg 57%
    12:00 +17°C° 0 mm 2 mps 633 mmHg 54%
    13:00 +16°C° 0.1 mm 2 mps 633 mmHg 61%
    14:00 +15°C° 0.1 mm 2 mps 632 mmHg 67%
    15:00 +14°C° 0.1 mm 2 mps 632 mmHg 74%
    16:00 +14°C° 0.3 mm 2 mps 631 mmHg 80%
    17:00 +13°C° 0.3 mm 1 mps 631 mmHg 85%
    18:00 +12°C° 0.3 mm 1 mps 631 mmHg 90%
    19:00 +11°C° 0.4 mm 1 mps 631 mmHg 92%
    20:00 +11°C° 0.4 mm 1 mps 631 mmHg 93%
    21:00 +10°C° 0.4 mm 1 mps 631 mmHg 95%
    22:00 +10°C° 0.2 mm 1 mps 631 mmHg 95%
    23:00 +10°C° 0.2 mm 1 mps 631 mmHg 96%
    Show more